This is the latest recevied weather packets stored in our database for station/object N9NDF. If no packets are shown the sender has not sent any weather packets the latest 1 day(s).
| Time | Temp. | Humidity | Pressure | Rain* | Wind** | Luminosity | Snow |
|---|---|---|---|---|---|---|---|
| 1778089112 | 15° C | 41% | 993.7 hPa | 0 mm | - | 1079 W/m² | - |
| 1778088932 | 15° C | 40% | 993.8 hPa | 0 mm | - | 875 W/m² | - |
| 1778088444 | 14.44° C | 41% | 993.7 hPa | 0 mm | - | 523 W/m² | - |
| 1778088322 | 14.44° C | 42% | 993.7 hPa | 0 mm | - | 945 W/m² | - |
| 1778088138 | 14.44° C | 42% | 993.8 hPa | 0 mm | - | 1083 W/m² | - |
| 1778088079 | 14.44° C | 40% | 993.7 hPa | 0 mm | - | 1032 W/m² | - |
| 1778087896 | 14.44° C | 41% | 993.9 hPa | 0 mm | - | 999 W/m² | - |
| 1778087591 | 14.44° C | 44% | 993.9 hPa | 0 mm | - | 1041 W/m² | - |
| 1778087531 | 14.44° C | 45% | 993.9 hPa | 0 mm | - | 862 W/m² | - |
| 1778087471 | 14.44° C | 43% | 993.9 hPa | 0 mm | - | 582 W/m² | - |
| 1778086991 | 14.44° C | 43% | 994.1 hPa | 0 mm | - | 420 W/m² | - |
| 1778086806 | 13.89° C | 42% | 993.9 hPa | 0 mm | - | 1079 W/m² | - |
| 1778086386 | 13.33° C | 45% | 993.9 hPa | 0 mm | - | 615 W/m² | - |
| 1778086085 | 13.89° C | 45% | 993.8 hPa | 0 mm | - | 855 W/m² | - |
| 1778085846 | 14.44° C | 45% | 993.9 hPa | 0 mm | - | 471 W/m² | - |
| 1778085785 | 14.44° C | 44% | 993.9 hPa | 0 mm | - | 641 W/m² | - |
| 1778085545 | 14.44° C | 44% | 993.7 hPa | 0 mm | - | 718 W/m² | - |
| 1778085486 | 14.44° C | 44% | 993.7 hPa | 0 mm | - | 558 W/m² | - |
| 1778085306 | 14.44° C | 44% | 993.8 hPa | 0 mm | - | 1105 W/m² | - |
| 1778085246 | 14.44° C | 44% | 993.8 hPa | 0 mm | - | 1081 W/m² | - |
| 1778084946 | 14.44° C | 48% | 993.8 hPa | 0 mm | - | 942 W/m² | - |
| 1778084534 | 14.44° C | 47% | 993.8 hPa | 0 mm | - | 928 W/m² | - |
| 1778084328 | 14.44° C | 44% | 993.8 hPa | 0 mm | - | 934 W/m² | - |
| 1778084133 | 13.89° C | 47% | 993.8 hPa | 0 mm | - | 940 W/m² | - |
| 1778084058 | 13.89° C | 46% | 993.8 hPa | 0 mm | - | 933 W/m² | - |
* Rain latest hour (hover to see other rain measurements)
** Current wind speed in m/s (hover to see current wind gust speed)